SCP
0 0 1 1 1 1 0 1 1 1 1 1 1 1 1 1 1 1 1 1 1 1 1 1 1 1 1 1 1 1 1 1 2 3 3 2 2 2 1 1 1 0 0
0 0 1 1 1 1 1 1 0 1 1 1 1 1 1 1 1 1 1 1 1 1 1 1 1 1 1 1 1 1 1 1 2 3 3 2 2 2 1 1 1 1 0
1 0 1 1 1 1 1 1 1 1 1 1 1 1 1 0 0 1 1 1 1 1 1 1 1 1 1 1 1 2 2 2 2 3 3 2 2 2 2 1 1 1 1
0 1 1 1 1 1 1 1 1 1 1 1 1 1 1 0 0 1 1 1 1 1 0 0 0 1 1 1 1 2 2 2 2 3 2 2 2 2 2 2 1 1 1
0 0 1 1 1 0 0 1 1 1 1 1 1 1 1 1 1 1 1 1 1 0 0 0 0 1 1 1 1 2 2 2 2 2 2 2 2 2 3 2 2 1 1
0 0 1 1 1 0 0 1 1 1 1 1 1 1 1 1 1 1 1 1 0 0 0 0 0 0 0 1 1 2 2 2 2 2 1 1 2 2 3 2 2 1 1
1 1 1 1 1 1 1 1 1 0 0 1 1 1 1 1 1 1 1 0 0 0 0 0 0 0 0 1 1 1 1 2 1 1 1 1 2 2 2 2 2 2 1
1 1 1 1 1 1 1 1 1 0 0 0 0 1 1 1 1 1 1 0 0 0 0 1 0 0 1 1 1 1 1 1 1 1 1 1 1 2 2 2 2 1 1
1 1 1 1 1 1 1 1 1 1 0 0 0 1 1 1 1 1 0 0 0 0 0 0 0 0 0 1 1 1 1 1 1 0 0 1 1 2 2 2 1 1 1
1 1 1 1 1 1 1 1 1 1 1 1 1 1 1 1 1 1 1 0 0 0 0 0 0 0 0 1 1 1 1 1 1 0 0 0 1 1 1 1 1 1 0
1 1 1 1 1 1 1 1 1 1 1 1 1 1 1 1 1 1 1 0 0 0 0 0 0 0 0 0 1 1 1 1 1 0 0 0 1 1 1 1 1 0 0
1 1 1 1 1 1 1 0 0 0 0 1 1 1 1 1 1 0 0 0 0 0 0 0 0 0 0 0 1 1 1 1 1 0 0 0 1 1 1 1 0 0 0
1 1 1 1 1 1 1 0 0 0 0 0 0 1 1 1 1 1 1 0 0 0 0 0 0 0 0 0 0 0 0 1 1 0 0 0 1 1 1 0 0 0 0
1 1 1 1 1 1 0 0 0 0 0 0 0 0 0 0 0 1 1 0 0 0 0 0 0 0 0 0 0 0 0 0 0 0 0 0 1 1 1 1 1 0 0
1 1 1 1 1 1 1 0 0 0 0 0 0 0 0 0 0 0 1 0 0 0 0 0 0 0 0 0 0 0 0 0 0 0 0 0 1 1 1 1 1 1 1
1 1 1 1 1 1 1 1 1 1 1 0 1 1 1 0 0 0 0 0 0 0 0 0 0 0 0 0 0 0 0 0 0 0 0 0 0 1 1 1 1 1 1
1 1 1 1 1 1 1 1 1 1 1 1 1 1 1 0 0 0 1 1 1 1 0 0 0 0 0 0 0 0 0 0 0 0 0 0 0 0 0 1 1 1 1
1 1 1 2 2 1 1 1 1 1 1 1 1 1 1 0 0 1 1 1 1 1 1 1 0 0 0 0 0 0 0 0 0 0 0 0 0 0 0 0 0 1 1
2 2 1 1 1 1 1 1 1 1 1 1 1 1 1 1 1 1 1 1 1 1 1 1 0 0 0 0 0 0 0 0 0 0 0 0 0 0 0 0 0 0 0
2 2 1 1 1 1 1 1 1 1 1 1 1 1 1 1 1 1 1 1 1 1 1 1 0 0 0 0 0 0 0 0 0 0 0 0 0 0 0 0 0 0 0
2 1 1 1 1 1 1 1 1 1 1 1 1 1 1 1 1 1 1 2 2 2 2 1 1 0 0 0 0 0 0 0 0 0 0 0 0 0 0 0 0 0 0
2 1 1 1 1 1 1 1 1 1 1 1 1 1 1 1 1 2 2 2 2 2 2 2 1 1 1 1 0 0 0 0 0 0 0 0 0 0 0 0 0 0 0
1 1 1 1 1 1 1 1 1 1 1 1 1 1 1 1 2 2 2 2 2 2 2 2 2 1 1 1 0 0 0 0 0 0 0 0 0 0 0 0 0 0 0
1 1 1 1 1 1 1 1 1 1 1 1 1 1 1 2 2 2 2 2 2 2 2 2 2 2 1 1 0 0 0 0 0 0 0 0 0 0 0 0 0 0 0
2 2 2 1 1 1 1 1 2 2 2 2 1 1 1 2 2 2 2 1 1 2 2 2 2 2 1 1 0 0 0 0 0 0 0 0 0 1 1 1 1 0 0
3 2 2 1 1 1 2 2 2 2 2 2 1 1 1 2 1 1 1 1 1 1 1 2 2 2 1 1 0 0 1 0 0 0 0 0 1 1 1 1 1 0 0
Wind_Speed
3 3 7 10 11 11 12 13 13 14 15 15 16 16 16 16 16 16 16 15 15 15 15 15 15 15 15 15 15 15 15 15 14 14 15 14 14 14 14 14 13 10 14
2 3 7 9 10 11 12 12 13 13 14 15 15 15 15 15 15 15 15 15 15 15 15 14 14 14 15 15 14 14 14 14 14 14 14 13 13 13 13 14 13 9 14
2 2 5 9 10 11 11 12 12 13 14 14 15 15 15 15 15 15 15 15 15 15 14 14 14 15 15 14 14 14 13 13 13 13 13 8 9 12 13 13 14 14 14
3 3 5 9 10 11 11 11 11 12 13 14 14 14 14 14 14 15 15 14 14 14 14 14 14 14 14 14 13 13 13 13 13 12 7 6 7 11 12 13 14 14 14
3 3 4 9 10 10 11 11 11 12 13 13 13 13 13 13 14 14 13 13 13 13 13 13 13 13 13 13 12 12 12 12 12 9 6 5 5 10 12 13 13 13 13
3 3 4 8 9 10 10 11 11 11 12 12 12 13 12 13 13 13 13 13 12 12 12 12 12 12 11 11 11 11 11 11 9 6 6 5 5 10 12 13 13 13 13
3 3 3 8 9 9 9 10 10 10 11 12 12 12 12 12 12 12 12 12 11 11 11 10 10 10 10 10 10 10 9 10 7 6 5 5 5 10 12 12 12 13 12
3 3 3 7 8 8 9 9 10 11 11 11 12 12 12 12 11 11 11 11 10 10 9 9 9 9 8 9 9 9 8 9 7 6 5 5 8 10 11 12 12 12 12
3 3 3 3 4 7 8 8 9 10 10 10 10 11 11 11 10 10 10 10 9 9 8 8 8 8 8 7 7 8 8 9 6 4 6 4 8 10 11 11 11 11 11
3 3 3 3 4 3 4 7 8 9 9 9 9 10 10 9 8 9 8 8 8 7 7 7 6 6 6 6 6 7 7 7 5 5 4 5 10 11 11 11 11 11 11
2 2 2 2 3 3 3 4 5 6 7 7 6 8 7 4 4 4 6 7 6 6 6 6 5 5 5 5 5 6 5 3 5 4 3 7 10 11 11 11 11 11 10
2 1 1 1 2 2 2 3 3 3 4 4 3 3 3 3 3 4 5 5 5 5 5 5 5 5 4 2 3 4 2 4 4 3 4 9 10 10 11 11 11 11 10
3 2 1 1 1 1 1 2 1 2 2 2 2 3 2 2 2 3 2 3 3 4 3 4 4 2 2 2 2 2 3 3 2 2 4 8 9 10 10 10 11 11 10
3 3 2 2 1 1 1 1 1 1 1 1 1 2 2 2 2 1 1 2 2 2 2 2 1 2 2 2 2 2 3 2 2 2 3 8 9 10 10 10 11 11 10
4 4 3 3 2 2 1 1 1 1 0 0 1 1 1 1 1 1 1 1 1 1 1 1 1 1 1 1 1 2 3 3 3 3 2 7 8 9 10 10 11 11 11
5 5 4 4 3 2 2 1 1 1 1 0 0 1 1 1 1 0 0 1 1 1 0 0 1 1 1 1 1 1 2 3 3 3 3 4 8 9 9 10 10 11 12
5 4 4 4 4 3 3 2 1 1 1 1 1 1 2 2 1 1 0 0 0 0 1 1 1 1 1 1 0 1 1 2 3 3 3 3 3 7 9 10 10 11 11
5 4 4 4 4 3 3 2 1 1 1 1 1 1 2 2 2 1 1 1 0 0 0 0 1 1 1 0 0 0 1 1 2 3 3 3 2 3 6 9 10 11 12
6 5 4 3 4 3 2 1 1 1 1 1 1 1 1 2 2 2 1 1 1 0 0 0 1 1 0 0 1 0 0 1 2 2 3 4 3 3 3 4 7 8 10
5 4 4 3 3 3 2 1 1 1 0 0 1 1 1 1 2 2 1 1 1 0 0 0 0 0 1 1 0 1 0 0 1 1 2 3 3 4 3 3 3 4 7
4 4 4 3 2 3 2 1 1 1 0 0 1 2 2 2 2 2 1 1 1 1 1 1 1 0 0 0 1 1 1 1 0 0 1 1 2 3 3 3 2 2 2
5 5 4 3 3 3 2 2 2 1 1 1 1 1 1 2 2 2 2 2 1 1 1 1 1 1 0 1 1 1 1 2 2 1 0 1 1 1 2 2 2 3 2
6 6 5 4 3 3 3 2 2 2 1 1 1 1 1 1 2 2 2 2 2 2 2 2 2 2 1 0 1 2 2 1 1 1 1 0 0 1 1 2 2 3 3
7 6 5 4 3 3 3 3 3 2 1 2 1 1 1 1 1 2 2 2 2 2 2 2 2 2 2 1 0 1 1 2 1 0 1 1 0 0 1 1 1 2 2
7 6 5 4 3 3 4 4 4 2 2 1 0 1 1 1 1 1 2 2 2 2 2 2 1 2 2 2 1 1 1 1 1 1 0 1 1 1 0 0 1 1 1
6 6 5 5 3 3 4 4 4 3 2 1 1 1 1 1 1 2 1 1 2 2 2 2 2 2 2 2 2 2 2 2 2 2 2 1 0 1 1 1 0 0 1
Wind_Direction
345 2 61 78 78 83 84 84 88 96 99 99 102 103 103 104 105 107 108 108 110 112 112 113 115 117 117 118 118 119 121 121 121 122 121 120 119 119 119 118 117 118 119
15 26 71 77 79 83 86 84 87 97 100 102 103 104 105 105 105 105 107 108 109 110 111 112 116 117 116 115 115 117 118 120 121 120 120 120 119 119 120 121 121 122 123
49 34 72 79 78 83 87 86 87 95 100 103 105 107 108 108 107 105 105 105 105 107 108 111 111 115 118 118 118 117 116 118 120 120 116 112 118 122 125 125 125 124 124
65 50 79 87 82 83 85 85 88 92 97 102 104 107 109 110 109 107 105 105 105 105 107 109 109 116 119 120 120 120 120 120 119 119 112 114 120 127 128 129 129 128 126
61 50 85 91 88 85 85 86 90 93 95 98 101 105 109 110 109 107 106 105 105 106 107 109 110 114 119 122 124 125 127 125 124 118 110 111 114 130 132 132 132 130 129
64 46 81 95 92 90 87 87 89 89 93 97 100 101 103 106 108 108 106 103 101 103 106 107 109 110 115 122 127 130 132 133 126 119 114 118 125 136 138 137 135 133 132
72 43 72 100 97 95 94 93 96 92 92 93 97 98 98 100 102 106 106 104 102 102 104 105 108 111 113 120 125 129 132 136 131 126 126 128 135 141 144 143 139 137 136
81 54 56 93 97 98 100 95 95 96 95 93 93 94 95 95 97 101 102 103 102 102 102 104 105 111 114 119 124 130 135 138 137 137 135 138 146 144 144 144 141 141 141
72 60 40 48 74 90 98 94 94 96 96 95 94 94 94 95 96 97 98 100 100 101 103 105 105 106 115 123 130 136 140 143 136 138 145 146 152 150 149 147 145 145 145
65 52 43 41 48 55 74 91 95 96 95 94 94 95 94 93 93 95 94 97 98 99 100 99 98 103 118 122 129 137 144 142 139 142 145 155 158 157 156 155 152 150 150
94 44 45 45 45 51 62 78 81 87 88 88 88 94 85 64 66 78 90 95 96 94 93 92 90 91 104 105 116 130 135 134 141 146 151 163 165 164 163 161 160 159 158
176 168 83 66 52 49 64 61 49 56 59 62 64 68 69 64 60 67 67 79 80 78 74 73 73 74 71 67 88 104 117 135 142 154 167 171 172 170 169 168 168 167 167
185 176 161 152 97 76 47 68 59 54 57 59 66 71 69 61 51 49 39 42 40 44 41 44 46 55 68 75 78 98 122 132 147 163 176 179 178 176 175 175 177 176 176
172 191 185 173 148 128 83 74 83 75 68 72 77 84 84 74 55 39 37 28 27 29 33 37 37 44 64 87 107 124 136 144 154 157 185 186 186 186 185 183 185 184 183
182 194 193 180 180 178 159 181 131 127 129 114 98 100 115 104 87 47 29 32 26 28 38 37 37 33 50 71 128 157 168 170 167 170 184 195 193 193 194 193 193 192 192
190 195 188 184 186 175 179 191 179 168 173 141 151 174 151 133 126 99 31 38 24 17 33 53 59 57 48 80 137 178 183 176 179 181 190 205 206 202 202 202 203 202 200
187 188 187 187 177 176 186 199 195 185 171 181 201 190 173 162 163 158 190 331 310 360 34 49 58 65 73 85 133 200 185 182 191 196 193 198 210 213 212 211 213 212 207
177 181 193 187 169 176 178 180 169 164 164 194 197 190 187 181 180 170 192 237 258 56 83 90 76 64 44 77 186 230 183 187 201 202 199 202 205 217 224 223 222 219 217
179 178 180 175 168 172 165 158 164 153 168 198 198 199 196 191 188 177 198 224 186 139 170 225 83 120 262 267 231 209 185 200 205 205 205 209 208 212 221 233 232 225 225
174 173 174 170 167 155 137 113 82 68 63 180 221 219 200 200 187 179 198 210 179 154 305 67 98 90 247 260 325 64 34 221 179 200 205 201 206 213 213 221 234 232 228
168 173 175 170 171 148 138 142 144 183 218 217 230 222 208 201 187 184 201 199 190 198 227 205 165 172 269 117 84 42 16 31 92 229 190 188 205 208 195 204 213 220 232
177 178 176 179 175 176 171 162 160 158 196 219 254 254 215 200 195 204 204 210 200 203 228 208 166 157 205 110 116 95 18 359 12 24 144 186 213 189 201 207 204 206 216
185 188 189 187 180 179 163 127 93 63 36 21 346 323 284 210 203 206 203 203 207 198 219 221 191 180 186 138 127 137 140 218 326 5 22 78 177 182 210 206 203 203 207
195 187 183 183 177 172 155 151 154 164 184 227 245 271 305 290 246 221 212 206 212 212 226 237 197 183 165 179 134 123 154 162 159 4 6 23 44 163 228 216 206 197 195
185 181 181 175 172 167 164 168 168 177 196 203 193 307 322 324 305 272 234 219 220 222 228 227 195 182 177 176 167 151 130 113 145 163 243 358 23 7 155 181 180 185 192
180 177 173 171 177 173 173 177 180 181 176 163 216 264 293 314 321 320 271 243 236 233 229 217 209 193 187 178 173 166 164 164 177 170 185 215 313 349 35 63 110 207 210